This is the latest recevied weather packets stored in our database for station/object KC5TIL-3. If no packets are shown the sender has not sent any weather packets the latest 10 day(s).
| Time | Temp. | Humidity | Pressure | Rain* | Wind** | Luminosity | Snow |
|---|---|---|---|---|---|---|---|
| 1787656546 | 28.33° C | 20% | 1011.8 hPa | 0 mm | 2.68 m/s, 211° | - | - |
| 1787656245 | 28.33° C | 20% | 1011.8 hPa | 0 mm | 2.24 m/s, 207° | - | - |
| 1787655946 | 28.33° C | 20% | 1011.8 hPa | 0 mm | 3.13 m/s, 216° | - | - |
| 1787655648 | 28.89° C | 20% | 1010.8 hPa | 0 mm | 3.13 m/s, 192° | - | - |
| 1787655347 | 28.89° C | 20% | 1010.8 hPa | 0 mm | 2.68 m/s, 235° | - | - |
| 1787655049 | 28.89° C | 20% | 1010.8 hPa | 0 mm | 3.13 m/s, 224° | - | - |
| 1787654750 | 28.89° C | 20% | 1010.8 hPa | 0 mm | 2.68 m/s, 190° | - | - |
| 1787654449 | 28.89° C | 20% | 1010.8 hPa | 0 mm | 2.68 m/s, 170° | - | - |
| 1787654151 | 28.89° C | 20% | 1010.8 hPa | 0 mm | 2.68 m/s, 168° | - | - |
| 1787653853 | 28.89° C | 19% | 1010.8 hPa | 0 mm | 3.13 m/s, 142° | - | - |
| 1787653551 | 29.44° C | 19% | 1010.8 hPa | 0 mm | 2.68 m/s, 188° | - | - |
| 1787653253 | 29.44° C | 19% | 1010.8 hPa | 0 mm | 3.58 m/s, 213° | - | - |
| 1787652955 | 29.44° C | 19% | 1010.8 hPa | 0 mm | 3.58 m/s, 161° | - | - |
| 1787652654 | 29.44° C | 19% | 1010.8 hPa | 0 mm | 4.02 m/s, 195° | - | - |
| 1787652355 | 29.44° C | 19% | 1010.8 hPa | 0 mm | 3.13 m/s, 208° | - | - |
| 1787652057 | 29.44° C | 19% | 1010.8 hPa | 0 mm | 3.13 m/s, 183° | - | - |
| 1787651756 | 29.44° C | 18% | 1010.8 hPa | 0 mm | 2.68 m/s, 201° | - | - |
| 1787651458 | 29.44° C | 18% | 1010.8 hPa | 0 mm | 2.68 m/s, 190° | - | - |
| 1787651159 | 29.44° C | 18% | 1010.8 hPa | 0 mm | 3.58 m/s, 196° | - | - |
| 1787650858 | 29.44° C | 18% | 1010.8 hPa | 0 mm | 2.68 m/s, 235° | - | - |
| 1787650560 | 30° C | 18% | 1010.8 hPa | 0 mm | 3.58 m/s, 230° | - | - |
| 1787650257 | 30° C | 18% | 1010.8 hPa | 0 mm | 4.02 m/s, 195° | - | - |
| 1787649956 | 30° C | 18% | 1010.8 hPa | 0 mm | 4.47 m/s, 206° | - | - |
| 1787649658 | 30° C | 18% | 1010.8 hPa | 0 mm | 3.58 m/s, 216° | - | - |
| 1787649360 | 30° C | 18% | 1010.8 hPa | 0 mm | 2.68 m/s, 210° | - | - |
* Rain latest hour (hover to see other rain measurements)
** Current wind speed in m/s (hover to see current wind gust speed)